Time,TemperatureF,DewpointF,PressureIn,WindDirection,WindDirectionDegrees,WindSpeedMPH,WindSpeedGustMPH,Humidity,HourlyPrecipIn,Conditions,Clouds,dailyrainin,SoftwareType,DateUTC
2013-04-22 00:01:00,52.5,46.8,30.06,SW,225,1.7,4.0,81,0.00,,,0.00,,2013-04-21 22:01:00,
2013-04-22 00:06:00,52.3,46.6,30.06,NW,315,1.3,1.7,81,0.00,,,0.00,,2013-04-21 22:06:00,
2013-04-22 00:11:00,52.2,46.4,30.06,NW,315,1.7,1.7,81,0.00,,,0.00,,2013-04-21 22:11:00,
2013-04-22 00:16:00,52.0,46.2,30.06,NW,315,1.3,1.7,81,0.00,,,0.00,,2013-04-21 22:16:00,
2013-04-22 00:21:00,52.0,46.6,30.06,North,0,0.4,0.8,82,0.00,,,0.00,,2013-04-21 22:21:00,
2013-04-22 00:26:00,52.2,46.8,30.06,North,0,0.0,0.8,82,0.00,,,0.00,,2013-04-21 22:26:00,
2013-04-22 00:31:00,52.5,47.5,30.06,North,0,0.8,0.8,83,0.00,,,0.00,,2013-04-21 22:31:00,
2013-04-22 00:36:00,52.7,47.7,30.06,NE,45,1.3,1.3,83,0.00,,,0.00,,2013-04-21 22:36:00,
2013-04-22 00:41:00,52.9,47.8,30.06,NE,45,0.8,0.8,83,0.00,,,0.00,,2013-04-21 22:41:00,
2013-04-22 00:46:00,52.7,47.7,30.03,NE,45,1.7,1.7,83,0.00,,,0.00,,2013-04-21 22:46:00,
2013-04-22 00:51:00,52.9,47.8,30.03,NE,45,0.8,2.2,83,0.00,,,0.00,,2013-04-21 22:51:00,
2013-04-22 00:56:00,53.1,48.0,30.06,NE,45,0.0,2.6,83,0.00,,,0.00,,2013-04-21 22:56:00,
2013-04-22 01:06:00,53.2,48.2,30.06,NE,45,0.4,0.0,83,0.00,,,0.00,,2013-04-21 23:06:00,
2013-04-22 01:11:00,53.2,48.2,30.06,NE,45,1.3,1.7,83,0.00,,,0.00,,2013-04-21 23:11:00,
2013-04-22 01:16:00,53.2,48.2,30.03,East,90,1.3,1.7,83,0.00,,,0.00,,2013-04-21 23:16:00,
2013-04-22 01:21:00,53.2,48.2,30.03,East,90,1.3,1.7,83,0.00,,,0.00,,2013-04-21 23:21:00,
2013-04-22 01:26:00,53.2,48.2,30.06,NE,45,0.8,1.3,83,0.00,,,0.00,,2013-04-21 23:26:00,
2013-04-22 01:31:00,53.4,48.4,30.06,NE,45,1.7,2.6,83,0.00,,,0.00,,2013-04-21 23:31:00,
2013-04-22 01:36:00,53.1,48.0,30.03,NE,45,1.7,4.4,83,0.00,,,0.00,,2013-04-21 23:36:00,
2013-04-22 01:41:00,52.9,47.8,30.03,NE,45,2.2,3.5,83,0.00,,,0.00,,2013-04-21 23:41:00,
2013-04-22 01:46:00,52.7,47.7,30.06,North,0,3.5,5.8,83,0.00,,,0.00,,2013-04-21 23:46:00,
2013-04-22 01:51:00,52.7,47.7,30.06,ENE,67,0.8,2.6,83,0.00,,,0.00,,2013-04-21 23:51:00,
2013-04-22 01:56:00,52.9,47.8,30.06,NE,45,0.8,2.2,83,0.00,,,0.00,,2013-04-21 23:56:00,
2013-04-22 02:01:00,52.9,48.0,30.06,NE,45,2.2,3.1,84,0.00,,,0.00,,2013-04-22 00:01:00,
2013-04-22 02:06:00,52.9,48.0,30.03,East,90,0.8,3.1,84,0.00,,,0.00,,2013-04-22 00:06:00,
2013-04-22 02:11:00,53.1,48.0,30.03,East,90,2.6,3.5,83,0.00,,,0.00,,2013-04-22 00:11:00,
2013-04-22 02:16:00,53.2,47.8,30.03,East,90,4.4,4.4,82,0.00,,,0.00,,2013-04-22 00:16:00,
2013-04-22 02:21:00,53.2,47.5,30.03,NE,45,2.6,3.1,81,0.00,,,0.00,,2013-04-22 00:21:00,
2013-04-22 02:26:00,53.2,47.5,30.03,NE,45,2.6,4.9,81,0.00,,,0.00,,2013-04-22 00:26:00,
2013-04-22 02:31:00,53.2,47.5,30.03,ENE,67,1.3,1.3,81,0.00,,,0.00,,2013-04-22 00:31:00,
2013-04-22 02:36:00,53.2,47.5,30.00,NE,45,0.8,0.0,81,0.00,,,0.00,,2013-04-22 00:36:00,
2013-04-22 02:41:00,53.2,47.1,30.00,NE,45,2.2,2.2,80,0.00,,,0.00,,2013-04-22 00:41:00,
2013-04-22 02:46:00,53.2,47.1,30.03,NE,45,1.3,2.2,80,0.00,,,0.00,,2013-04-22 00:46:00,
2013-04-22 02:51:00,53.4,47.3,30.03,East,90,0.8,1.3,80,0.00,,,0.00,,2013-04-22 00:51:00,
2013-04-22 02:56:00,53.2,47.1,30.03,NE,45,1.7,2.2,80,0.00,,,0.00,,2013-04-22 00:56:00,
2013-04-22 03:01:00,53.2,47.1,30.03,NE,45,0.0,0.8,80,0.00,,,0.00,,2013-04-22 01:01:00,
2013-04-22 03:06:00,53.1,46.9,30.00,East,90,1.7,2.2,80,0.00,,,0.00,,2013-04-22 01:06:00,
2013-04-22 03:11:00,52.9,46.8,30.00,East,90,1.7,2.2,80,0.00,,,0.00,,2013-04-22 01:11:00,
2013-04-22 03:16:00,52.9,46.8,30.03,NE,45,1.3,2.2,80,0.00,,,0.00,,2013-04-22 01:16:00,
2013-04-22 03:21:00,52.7,45.9,30.03,NE,45,1.7,4.9,78,0.00,,,0.00,,2013-04-22 01:21:00,
2013-04-22 03:26:00,52.7,45.7,30.03,ENE,67,3.1,3.1,77,0.00,,,0.00,,2013-04-22 01:26:00,
2013-04-22 03:31:00,52.7,45.3,30.03,NE,45,3.5,4.4,76,0.00,,,0.00,,2013-04-22 01:31:00,
2013-04-22 03:36:00,52.7,45.3,30.00,NE,45,3.1,4.4,76,0.00,,,0.00,,2013-04-22 01:36:00,
2013-04-22 03:41:00,52.5,44.8,30.00,NE,45,4.4,5.3,75,0.00,,,0.00,,2013-04-22 01:41:00,
2013-04-22 03:46:00,52.5,44.8,30.00,NE,45,3.5,3.5,75,0.00,,,0.00,,2013-04-22 01:46:00,
2013-04-22 03:51:00,52.5,44.8,30.00,East,90,3.1,0.0,75,0.00,,,0.00,,2013-04-22 01:51:00,
2013-04-22 03:56:00,52.5,44.8,30.00,NE,45,3.1,3.5,75,0.00,,,0.00,,2013-04-22 01:56:00,
2013-04-22 04:01:00,52.5,44.8,30.00,NE,45,3.5,3.5,75,0.00,,,0.00,,2013-04-22 02:01:00,
2013-04-22 04:06:00,52.2,44.4,30.00,East,90,3.5,3.5,75,0.00,,,0.00,,2013-04-22 02:06:00,
2013-04-22 04:11:00,52.2,44.4,30.00,East,90,2.2,3.5,75,0.00,,,0.00,,2013-04-22 02:11:00,
2013-04-22 04:16:00,52.2,44.4,29.97,NE,45,2.6,4.9,75,0.00,,,0.00,,2013-04-22 02:16:00,
2013-04-22 04:21:00,52.2,44.4,29.97,NE,45,0.8,1.7,75,0.00,,,0.00,,2013-04-22 02:21:00,
2013-04-22 04:26:00,52.2,44.4,29.97,NE,45,1.3,3.5,75,0.00,,,0.00,,2013-04-22 02:26:00,
2013-04-22 04:31:00,52.2,44.4,29.97,NE,45,0.8,3.1,75,0.00,,,0.00,,2013-04-22 02:31:00,
2013-04-22 04:36:00,52.2,44.4,30.00,NE,45,2.6,2.6,75,0.00,,,0.00,,2013-04-22 02:36:00,
2013-04-22 04:41:00,52.2,44.4,30.00,NE,45,0.4,0.4,75,0.00,,,0.00,,2013-04-22 02:41:00,
2013-04-22 04:46:00,52.2,44.4,30.00,NE,45,0.0,0.0,75,0.00,,,0.00,,2013-04-22 02:46:00,
2013-04-22 04:51:00,52.0,44.2,30.00,NE,45,0.0,0.0,75,0.00,,,0.00,,2013-04-22 02:51:00,
2013-04-22 04:56:00,52.0,44.6,30.00,NE,45,1.3,0.0,76,0.00,,,0.00,,2013-04-22 02:56:00,
2013-04-22 05:01:00,52.0,45.0,30.00,NE,45,0.0,0.8,77,0.00,,,0.00,,2013-04-22 03:01:00,
2013-04-22 05:06:00,51.8,44.8,30.00,NE,45,1.3,0.0,77,0.00,,,0.00,,2013-04-22 03:06:00,
2013-04-22 05:11:00,51.6,44.6,30.00,NE,45,2.2,0.0,77,0.00,,,0.00,,2013-04-22 03:11:00,
2013-04-22 05:16:00,51.4,44.4,30.00,NW,315,1.7,1.7,77,0.00,,,0.00,,2013-04-22 03:16:00,
2013-04-22 05:21:00,51.4,44.8,30.00,NW,315,2.6,2.6,78,0.00,,,0.00,,2013-04-22 03:21:00,
2013-04-22 05:26:00,51.4,45.1,30.00,NE,45,1.7,4.0,79,0.00,,,0.00,,2013-04-22 03:26:00,
2013-04-22 05:31:00,51.3,45.0,30.00,North,0,1.7,2.6,79,0.00,,,0.00,,2013-04-22 03:31:00,
2013-04-22 05:36:00,51.1,44.8,30.00,North,0,0.4,0.8,79,0.00,,,0.00,,2013-04-22 03:36:00,
2013-04-22 05:41:00,51.1,45.0,30.00,NE,45,0.4,1.3,80,0.00,,,0.00,,2013-04-22 03:41:00,
2013-04-22 05:46:00,51.3,45.1,30.00,NE,45,0.4,0.0,80,0.00,,,0.00,,2013-04-22 03:46:00,
2013-04-22 05:51:00,51.3,45.1,30.00,NE,45,1.7,3.1,80,0.00,,,0.00,,2013-04-22 03:51:00,
2013-04-22 05:56:00,51.3,45.1,30.00,NE,45,0.4,0.0,80,0.00,,,0.00,,2013-04-22 03:56:00,
2013-04-22 06:01:00,51.3,45.1,30.00,NE,45,0.4,0.0,80,0.00,,,0.00,,2013-04-22 04:01:00,
2013-04-22 06:06:00,51.3,45.5,30.00,NE,45,0.0,0.0,81,0.00,,,0.00,,2013-04-22 04:06:00,
2013-04-22 06:11:00,51.3,45.5,30.00,NE,45,2.2,2.6,81,0.00,,,0.00,,2013-04-22 04:11:00,
2013-04-22 06:16:00,51.3,45.5,30.00,NE,45,3.1,4.0,81,0.00,,,0.00,,2013-04-22 04:16:00,
2013-04-22 06:21:00,51.3,45.5,30.00,East,90,1.3,2.2,81,0.00,,,0.00,,2013-04-22 04:21:00,
2013-04-22 06:26:00,51.3,45.9,29.97,NE,45,1.3,1.7,82,0.00,,,0.00,,2013-04-22 04:26:00,
2013-04-22 06:36:00,51.3,46.2,30.00,ENE,67,2.2,3.1,83,0.00,,,0.00,,2013-04-22 04:36:00,
2013-04-22 06:41:00,51.3,46.2,30.00,ENE,67,3.1,4.4,83,0.00,,,0.00,,2013-04-22 04:41:00,
2013-04-22 06:46:00,51.1,46.0,29.97,SE,135,2.6,4.4,83,0.00,,,0.00,,2013-04-22 04:46:00,
2013-04-22 06:51:00,51.1,46.0,29.97,NE,45,2.6,2.6,83,0.00,,,0.00,,2013-04-22 04:51:00,
2013-04-22 06:56:00,51.1,46.4,30.00,East,90,1.3,3.1,84,0.00,,,0.00,,2013-04-22 04:56:00,
2013-04-22 07:01:00,51.1,46.4,30.00,East,90,3.5,4.4,84,0.00,,,0.00,,2013-04-22 05:01:00,
2013-04-22 07:06:00,51.1,46.4,30.00,NE,45,2.2,4.0,84,0.00,,,0.00,,2013-04-22 05:06:00,
2013-04-22 07:11:00,51.1,46.4,30.00,ENE,67,3.1,3.5,84,0.00,,,0.00,,2013-04-22 05:11:00,
2013-04-22 07:16:00,51.1,46.4,30.00,ENE,67,3.5,4.9,84,0.00,,,0.00,,2013-04-22 05:16:00,
2013-04-22 07:21:00,50.9,46.2,30.00,NE,45,3.5,4.9,84,0.00,,,0.00,,2013-04-22 05:21:00,
2013-04-22 07:26:00,50.9,46.2,30.00,NE,45,2.6,3.5,84,0.00,,,0.00,,2013-04-22 05:26:00,
2013-04-22 07:31:00,50.9,46.2,30.00,East,90,2.6,4.4,84,0.00,,,0.00,,2013-04-22 05:31:00,
2013-04-22 07:36:00,50.9,46.2,29.97,East,90,2.6,2.6,84,0.00,,,0.00,,2013-04-22 05:36:00,
2013-04-22 07:41:00,50.9,46.2,29.97,NE,45,2.6,3.1,84,0.00,,,0.00,,2013-04-22 05:41:00,
2013-04-22 07:46:00,51.1,46.6,30.00,NE,45,1.7,1.7,85,0.00,,,0.00,,2013-04-22 05:46:00,
2013-04-22 07:51:00,51.1,46.4,30.00,NE,45,3.1,4.9,84,0.00,,,0.00,,2013-04-22 05:51:00,
2013-04-22 07:56:00,51.3,46.6,30.00,NE,45,3.5,3.5,84,0.00,,,0.00,,2013-04-22 05:56:00,
2013-04-22 08:01:00,51.4,46.8,30.00,East,90,3.5,5.8,84,0.00,,,0.00,,2013-04-22 06:01:00,
2013-04-22 08:06:00,51.6,46.9,30.03,East,90,4.0,6.2,84,0.00,,,0.00,,2013-04-22 06:06:00,
2013-04-22 08:11:00,51.6,46.6,30.03,East,90,3.5,5.8,83,0.00,,,0.00,,2013-04-22 06:11:00,
2013-04-22 08:16:00,51.8,46.8,30.00,NE,45,3.1,4.0,83,0.00,,,0.00,,2013-04-22 06:16:00,
2013-04-22 08:21:00,52.0,47.1,30.00,NE,45,1.7,3.1,84,0.00,,,0.00,,2013-04-22 06:21:00,
2013-04-22 08:26:00,52.0,47.1,30.03,NE,45,1.7,2.6,84,0.00,,,0.00,,2013-04-22 06:26:00,
2013-04-22 08:31:00,52.2,47.3,30.03,NE,45,2.6,4.4,84,0.00,,,0.00,,2013-04-22 06:31:00,
2013-04-22 08:36:00,52.3,47.3,30.00,NE,45,2.2,4.4,83,0.00,,,0.00,,2013-04-22 06:36:00,
2013-04-22 08:41:00,52.5,47.5,30.00,ENE,67,1.7,4.0,83,0.00,,,0.00,,2013-04-22 06:41:00,
2013-04-22 08:46:00,52.7,47.7,30.03,NE,45,1.7,1.7,83,0.00,,,0.00,,2013-04-22 06:46:00,
2013-04-22 08:51:00,52.7,47.7,30.03,NE,45,1.3,3.5,83,0.00,,,0.00,,2013-04-22 06:51:00,
2013-04-22 08:56:00,52.9,47.8,30.03,NE,45,3.1,4.0,83,0.00,,,0.00,,2013-04-22 06:56:00,
2013-04-22 09:01:00,53.1,48.0,30.03,NE,45,1.3,3.1,83,0.00,,,0.00,,2013-04-22 07:01:00,
2013-04-22 09:06:00,53.1,47.7,30.00,NE,45,2.6,4.4,82,0.00,,,0.00,,2013-04-22 07:06:00,
2013-04-22 09:11:00,53.2,47.8,30.00,East,90,2.2,2.6,82,0.00,,,0.00,,2013-04-22 07:11:00,
2013-04-22 09:16:00,53.6,48.2,30.00,NE,45,3.5,4.4,82,0.00,,,0.00,,2013-04-22 07:16:00,
2013-04-22 09:21:00,54.0,48.2,30.00,NE,45,2.2,5.3,81,0.00,,,0.00,,2013-04-22 07:21:00,
2013-04-22 09:26:00,54.3,48.2,30.00,ENE,67,3.1,4.4,80,0.00,,,0.00,,2013-04-22 07:26:00,
2013-04-22 09:31:00,54.5,48.0,30.00,NE,45,4.0,4.9,79,0.00,,,0.00,,2013-04-22 07:31:00,
2013-04-22 09:36:00,54.7,48.2,30.03,East,90,3.5,4.0,79,0.00,,,0.00,,2013-04-22 07:36:00,
2013-04-22 09:41:00,54.9,48.4,30.03,East,90,1.3,2.2,79,0.00,,,0.00,,2013-04-22 07:41:00,
2013-04-22 09:46:00,54.9,48.0,30.03,NE,45,2.6,2.6,78,0.00,,,0.00,,2013-04-22 07:46:00,
2013-04-22 09:51:00,54.9,48.0,30.03,East,90,2.2,3.5,78,0.00,,,0.00,,2013-04-22 07:51:00,
2013-04-22 09:56:00,55.0,48.2,30.00,East,90,1.3,3.5,78,0.00,,,0.00,,2013-04-22 07:56:00,
2013-04-22 10:01:00,54.9,48.0,30.00,NE,45,1.3,1.3,78,0.00,,,0.00,,2013-04-22 08:01:00,
2013-04-22 10:06:00,54.9,48.0,30.00,ENE,67,2.6,4.4,78,0.00,,,0.00,,2013-04-22 08:06:00,
2013-04-22 10:11:00,54.9,48.0,30.00,NE,45,2.6,4.0,78,0.00,,,0.00,,2013-04-22 08:11:00,
2013-04-22 10:16:00,54.9,48.0,30.00,NE,45,2.6,3.5,78,0.00,,,0.00,,2013-04-22 08:16:00,
2013-04-22 10:21:00,55.2,48.4,30.00,NE,45,0.0,0.0,78,0.00,,,0.00,,2013-04-22 08:21:00,
2013-04-22 10:26:00,55.4,48.6,30.03,NE,45,0.4,1.3,78,0.00,,,0.00,,2013-04-22 08:26:00,
2013-04-22 10:31:00,55.8,48.9,30.03,ESE,112,0.4,2.2,78,0.00,,,0.00,,2013-04-22 08:31:00,
2013-04-22 10:36:00,56.3,48.7,30.00,ESE,112,3.1,7.6,76,0.00,,,0.00,,2013-04-22 08:36:00,
2013-04-22 10:41:00,56.7,48.0,30.00,SE,135,4.0,5.3,73,0.00,,,0.00,,2013-04-22 08:41:00,
2013-04-22 10:46:00,56.8,47.1,30.03,ESE,112,5.8,7.6,70,0.00,,,0.00,,2013-04-22 08:46:00,
2013-04-22 10:51:00,57.0,47.3,30.03,East,90,6.7,0.0,70,0.00,,,0.00,,2013-04-22 08:51:00,
2013-04-22 10:56:00,57.0,47.3,30.03,SE,135,5.8,5.8,70,0.00,,,0.00,,2013-04-22 08:56:00,
2013-04-22 11:01:00,56.3,46.6,30.03,SE,135,9.3,9.3,70,0.00,,,0.00,,2013-04-22 09:01:00,
2013-04-22 11:06:00,55.8,46.8,30.00,SE,135,5.8,5.8,72,0.00,,,0.00,,2013-04-22 09:06:00,
2013-04-22 11:11:00,55.6,47.3,30.00,East,90,3.1,8.0,74,0.00,,,0.00,,2013-04-22 09:11:00,
2013-04-22 11:16:00,55.2,46.9,30.03,East,90,6.7,8.9,74,0.00,,,0.00,,2013-04-22 09:16:00,
2013-04-22 11:21:00,54.9,47.3,30.03,NE,45,3.5,8.0,76,0.00,,,0.00,,2013-04-22 09:21:00,
2013-04-22 11:26:00,54.7,47.5,30.06,ESE,112,8.5,8.5,77,0.00,,,0.00,,2013-04-22 09:26:00,
2013-04-22 11:31:00,54.5,47.3,30.06,East,90,7.1,12.5,77,0.00,,,0.00,,2013-04-22 09:31:00,
2013-04-22 11:36:00,54.3,47.5,30.03,ESE,112,5.3,0.0,78,0.00,,,0.00,,2013-04-22 09:36:00,
2013-04-22 11:41:00,53.8,47.3,30.03,East,90,8.9,0.0,79,0.00,,,0.00,,2013-04-22 09:41:00,
2013-04-22 11:46:00,54.0,48.2,30.06,East,90,5.3,0.0,81,0.00,,,0.00,,2013-04-22 09:46:00,
2013-04-22 11:51:00,54.0,47.8,30.06,East,90,5.8,9.3,80,0.00,,,0.00,,2013-04-22 09:51:00,
2013-04-22 11:56:00,54.0,47.8,30.03,East,90,3.1,0.0,80,0.00,,,0.00,,2013-04-22 09:56:00,
2013-04-22 12:01:00,54.0,47.5,30.03,East,90,6.7,10.2,79,0.00,,,0.00,,2013-04-22 10:01:00,
2013-04-22 12:06:00,54.1,48.0,30.03,East,90,4.0,7.6,80,0.00,,,0.00,,2013-04-22 10:06:00,
2013-04-22 12:11:00,54.3,48.6,30.03,East,90,2.2,4.4,81,0.00,,,0.00,,2013-04-22 10:11:00,
2013-04-22 12:16:00,54.1,48.0,30.00,NE,45,4.0,6.2,80,0.00,,,0.00,,2013-04-22 10:16:00,
2013-04-22 12:21:00,54.1,48.0,30.00,ENE,67,4.0,4.0,80,0.00,,,0.00,,2013-04-22 10:21:00,
2013-04-22 12:26:00,54.3,48.6,30.03,East,90,1.3,4.4,81,0.00,,,0.00,,2013-04-22 10:26:00,
2013-04-22 12:31:00,54.0,47.8,30.03,NE,45,5.3,8.9,80,0.00,,,0.00,,2013-04-22 10:31:00,
2013-04-22 12:36:00,54.0,47.8,30.03,East,90,3.5,4.9,80,0.00,,,0.00,,2013-04-22 10:36:00,
2013-04-22 12:41:00,54.0,48.2,30.03,NE,45,6.2,7.6,81,0.00,,,0.00,,2013-04-22 10:41:00,
2013-04-22 12:46:00,54.0,48.2,30.03,East,90,5.3,5.3,81,0.00,,,0.00,,2013-04-22 10:46:00,
2013-04-22 12:51:00,54.0,48.2,30.03,NE,45,3.5,4.4,81,0.00,,,0.00,,2013-04-22 10:51:00,
2013-04-22 12:56:00,54.0,48.2,30.03,East,90,4.0,4.0,81,0.00,,,0.00,,2013-04-22 10:56:00,
2013-04-22 13:01:00,54.3,48.9,30.03,East,90,2.6,4.0,82,0.00,,,0.00,,2013-04-22 11:01:00,
2013-04-22 13:06:00,54.7,49.3,30.03,East,90,4.0,5.8,82,0.00,,,0.00,,2013-04-22 11:06:00,
2013-04-22 13:11:00,54.9,49.5,30.03,ENE,67,2.6,5.3,82,0.00,,,0.00,,2013-04-22 11:11:00,
2013-04-22 13:16:00,54.9,49.1,30.03,SE,135,5.3,5.8,81,0.00,,,0.00,,2013-04-22 11:16:00,
2013-04-22 13:21:00,54.5,48.4,30.03,East,90,3.1,4.4,80,0.00,,,0.00,,2013-04-22 11:21:00,
2013-04-22 13:26:00,54.5,48.4,30.06,East,90,1.7,4.9,80,0.00,,,0.00,,2013-04-22 11:26:00,
2013-04-22 13:31:00,54.3,48.6,30.06,SE,135,2.6,8.9,81,0.00,,,0.00,,2013-04-22 11:31:00,
2013-04-22 13:36:00,54.1,48.4,30.03,East,90,1.7,1.7,81,0.00,,,0.00,,2013-04-22 11:36:00,
2013-04-22 13:41:00,54.5,49.1,30.03,SE,135,0.0,1.3,82,0.00,,,0.00,,2013-04-22 11:41:00,
2013-04-22 13:46:00,54.9,49.5,30.03,SE,135,3.5,3.5,82,0.00,,,0.00,,2013-04-22 11:46:00,
2013-04-22 13:51:00,55.4,49.8,30.03,East,90,4.0,4.4,82,0.00,,,0.00,,2013-04-22 11:51:00,
2013-04-22 13:56:00,55.8,50.0,30.03,SE,135,4.9,5.3,81,0.00,,,0.00,,2013-04-22 11:56:00,
2013-04-22 14:01:00,56.1,50.0,30.03,NE,45,3.5,6.2,80,0.00,,,0.00,,2013-04-22 12:01:00,
2013-04-22 14:11:00,56.1,48.9,30.03,SE,135,5.3,0.0,77,0.00,,,0.00,,2013-04-22 12:11:00,
2013-04-22 14:16:00,56.1,48.9,30.03,East,90,4.9,8.5,77,0.00,,,0.00,,2013-04-22 12:16:00,
2013-04-22 14:21:00,55.9,48.0,30.03,East,90,5.8,8.5,75,0.00,,,0.00,,2013-04-22 12:21:00,
2013-04-22 14:26:00,55.9,48.0,30.03,SE,135,5.8,5.8,75,0.00,,,0.00,,2013-04-22 12:26:00,
2013-04-22 14:31:00,55.9,48.4,30.03,East,90,4.9,7.6,76,0.00,,,0.00,,2013-04-22 12:31:00,
2013-04-22 14:36:00,55.9,48.7,30.03,East,90,5.8,6.2,77,0.00,,,0.00,,2013-04-22 12:36:00,
2013-04-22 14:41:00,55.9,48.7,30.03,NE,45,3.5,8.0,77,0.00,,,0.00,,2013-04-22 12:41:00,
2013-04-22 14:46:00,55.9,48.7,30.03,NE,45,6.7,8.0,77,0.00,,,0.00,,2013-04-22 12:46:00,
2013-04-22 14:51:00,55.8,48.2,30.03,East,90,4.0,0.0,76,0.00,,,0.00,,2013-04-22 12:51:00,
2013-04-22 14:56:00,55.6,48.4,30.03,NE,45,3.1,4.9,77,0.00,,,0.00,,2013-04-22 12:56:00,
2013-04-22 15:01:00,55.4,48.2,30.03,ESE,112,3.5,4.4,77,0.00,,,0.00,,2013-04-22 13:01:00,
2013-04-22 15:06:00,55.0,48.2,30.03,East,90,4.0,4.4,78,0.00,,,0.00,,2013-04-22 13:06:00,
2013-04-22 15:11:00,54.9,48.4,30.03,SE,135,1.7,4.4,79,0.00,,,0.00,,2013-04-22 13:11:00,
2013-04-22 15:16:00,54.9,48.4,30.00,ENE,67,2.2,3.5,79,0.00,,,0.00,,2013-04-22 13:16:00,
2013-04-22 15:21:00,54.9,48.7,30.00,SE,135,1.7,3.5,80,0.00,,,0.00,,2013-04-22 13:21:00,
2013-04-22 15:26:00,55.0,48.9,30.00,East,90,2.2,2.6,80,0.00,,,0.00,,2013-04-22 13:26:00,
2013-04-22 15:31:00,55.6,49.8,30.00,East,90,1.3,3.1,81,0.00,,,0.00,,2013-04-22 13:31:00,
2013-04-22 15:36:00,55.6,49.5,30.03,NE,45,4.9,4.9,80,0.00,,,0.00,,2013-04-22 13:36:00,
2013-04-22 15:41:00,55.9,50.2,30.03,NE,45,3.1,3.1,81,0.00,,,0.00,,2013-04-22 13:41:00,
2013-04-22 15:46:00,56.5,50.5,30.00,ENE,67,2.6,4.4,81,0.00,,,0.00,,2013-04-22 13:46:00,
2013-04-22 15:51:00,56.5,50.0,30.00,East,90,5.3,9.8,79,0.00,,,0.00,,2013-04-22 13:51:00,
2013-04-22 15:56:00,56.7,49.8,30.00,NE,45,5.3,7.6,78,0.00,,,0.00,,2013-04-22 13:56:00,
2013-04-22 16:01:00,57.0,50.5,30.00,NE,45,3.5,5.8,79,0.00,,,0.00,,2013-04-22 14:01:00,
2013-04-22 16:06:00,57.2,50.7,30.03,SE,135,5.3,5.3,79,0.00,,,0.00,,2013-04-22 14:06:00,
2013-04-22 16:11:00,57.0,49.8,30.03,East,90,4.4,10.7,77,0.00,,,0.00,,2013-04-22 14:11:00,
2013-04-22 16:16:00,57.0,50.2,30.00,SE,135,8.0,10.7,78,0.00,,,0.00,,2013-04-22 14:16:00,
2013-04-22 16:21:00,57.0,50.5,30.00,SE,135,4.9,4.9,79,0.00,,,0.00,,2013-04-22 14:21:00,
2013-04-22 16:26:00,57.0,50.5,30.03,SE,135,4.0,4.0,79,0.00,,,0.00,,2013-04-22 14:26:00,
2013-04-22 16:31:00,56.7,50.2,30.03,SE,135,4.4,11.1,79,0.00,,,0.00,,2013-04-22 14:31:00,
2013-04-22 16:36:00,56.7,50.5,30.00,NE,45,4.0,4.0,80,0.00,,,0.00,,2013-04-22 14:36:00,
2013-04-22 16:41:00,56.1,48.6,30.00,East,90,8.0,8.0,76,0.00,,,0.00,,2013-04-22 14:41:00,
2013-04-22 16:46:00,56.1,47.8,30.03,SE,135,5.3,6.2,74,0.00,,,0.00,,2013-04-22 14:46:00,
2013-04-22 16:51:00,56.5,48.6,30.03,NE,45,3.5,3.5,75,0.00,,,0.00,,2013-04-22 14:51:00,
2013-04-22 16:56:00,56.7,49.1,30.00,SE,135,3.5,9.3,76,0.00,,,0.00,,2013-04-22 14:56:00,
2013-04-22 17:01:00,56.5,48.9,30.00,ESE,112,4.9,0.0,76,0.00,,,0.00,,2013-04-22 15:01:00,
2013-04-22 17:06:00,56.7,49.5,30.00,NE,45,3.5,3.5,77,0.00,,,0.00,,2013-04-22 15:06:00,
2013-04-22 17:11:00,56.7,49.5,30.00,ENE,67,3.1,4.0,77,0.00,,,0.00,,2013-04-22 15:11:00,
2013-04-22 17:16:00,56.7,49.8,30.03,East,90,3.5,4.0,78,0.00,,,0.00,,2013-04-22 15:16:00,
2013-04-22 17:21:00,56.7,49.5,30.03,East,90,5.3,5.8,77,0.00,,,0.00,,2013-04-22 15:21:00,
2013-04-22 17:26:00,57.2,50.4,30.03,NE,45,3.5,8.9,78,0.00,,,0.00,,2013-04-22 15:26:00,
2013-04-22 17:31:00,57.4,50.2,30.03,NE,45,2.6,4.4,77,0.00,,,0.00,,2013-04-22 15:31:00,
2013-04-22 17:36:00,57.4,50.2,30.00,East,90,4.0,4.9,77,0.00,,,0.00,,2013-04-22 15:36:00,
2013-04-22 17:41:00,57.6,50.4,30.00,NE,45,3.1,3.1,77,0.00,,,0.00,,2013-04-22 15:41:00,
2013-04-22 17:46:00,57.6,50.4,30.03,NE,45,2.6,2.6,77,0.00,,,0.00,,2013-04-22 15:46:00,
2013-04-22 17:51:00,57.4,50.2,30.03,NE,45,5.3,5.3,77,0.00,,,0.00,,2013-04-22 15:51:00,
2013-04-22 17:56:00,57.4,50.2,30.03,NE,45,3.1,5.8,77,0.00,,,0.00,,2013-04-22 15:56:00,
2013-04-22 18:01:00,57.4,50.2,30.03,NE,45,3.1,5.8,77,0.00,,,0.00,,2013-04-22 16:01:00,
2013-04-22 18:06:00,57.4,50.2,30.00,NE,45,3.1,5.3,77,0.00,,,0.00,,2013-04-22 16:06:00,
2013-04-22 18:11:00,57.4,50.2,30.00,East,90,3.5,4.4,77,0.00,,,0.00,,2013-04-22 16:11:00,
2013-04-22 18:16:00,57.6,50.4,30.00,East,90,1.3,1.3,77,0.00,,,0.00,,2013-04-22 16:16:00,
2013-04-22 18:26:00,57.9,50.7,30.00,East,90,2.2,2.2,77,0.00,,,0.00,,2013-04-22 16:26:00,
2013-04-22 18:31:00,57.9,50.4,30.00,East,90,0.8,0.0,76,0.00,,,0.00,,2013-04-22 16:31:00,
2013-04-22 18:36:00,58.1,50.5,30.00,NE,45,0.0,3.5,76,0.00,,,0.00,,2013-04-22 16:36:00,
2013-04-22 18:41:00,57.7,50.5,30.00,East,90,4.0,4.0,77,0.00,,,0.00,,2013-04-22 16:41:00,
2013-04-22 18:46:00,57.4,50.2,30.00,SE,135,2.2,3.5,77,-99.99,,,0.00,,2013-04-22 16:46:00,
2013-04-22 18:51:00,57.2,50.0,30.00,SE,135,2.6,3.5,77,-99.99,,,0.00,,2013-04-22 16:51:00,
2013-04-22 18:56:00,57.2,50.4,30.03,East,90,1.7,4.4,78,-99.99,,,0.00,,2013-04-22 16:56:00,
2013-04-22 19:01:00,57.0,50.2,30.03,East,90,4.4,8.5,78,-99.99,,,0.00,,2013-04-22 17:01:00,
2013-04-22 19:11:00,57.0,50.5,30.00,East,90,3.1,3.1,79,-99.99,,,0.00,,2013-04-22 17:11:00,
2013-04-22 19:16:00,56.8,50.4,30.06,NE,45,2.6,3.1,79,-99.99,,,0.00,,2013-04-22 17:16:00,
2013-04-22 19:21:00,56.8,50.7,30.06,East,90,1.7,2.2,80,-99.99,,,0.00,,2013-04-22 17:21:00,
2013-04-22 19:26:00,56.8,50.7,30.03,East,90,1.3,0.0,80,-99.99,,,0.00,,2013-04-22 17:26:00,
2013-04-22 19:31:00,56.7,50.5,30.03,SE,135,0.4,0.8,80,-99.99,,,0.00,,2013-04-22 17:31:00,
2013-04-22 19:36:00,56.7,50.5,30.03,SE,135,0.4,0.8,80,-99.99,,,0.00,,2013-04-22 17:36:00,
2013-04-22 19:41:00,56.7,50.5,30.03,SE,135,0.0,0.0,80,-99.99,,,0.00,,2013-04-22 17:41:00,
2013-04-22 19:46:00,56.7,50.5,30.03,SE,135,0.8,0.0,80,-99.99,,,0.00,,2013-04-22 17:46:00,
2013-04-22 19:51:00,56.8,50.7,30.03,East,90,2.6,2.6,80,-99.99,,,0.00,,2013-04-22 17:51:00,
2013-04-22 19:56:00,56.7,50.5,30.06,East,90,2.2,2.6,80,-99.99,,,0.00,,2013-04-22 17:56:00,
2013-04-22 20:01:00,56.5,50.0,30.06,East,90,3.1,3.1,79,0.00,,,0.00,,2013-04-22 18:01:00,
2013-04-22 20:06:00,56.3,49.8,30.03,East,90,3.1,3.1,79,0.00,,,0.00,,2013-04-22 18:06:00,
2013-04-22 20:11:00,56.1,49.6,30.03,East,90,3.1,3.1,79,0.00,,,0.00,,2013-04-22 18:11:00,
2013-04-22 20:16:00,55.9,49.5,30.06,East,90,3.1,5.3,79,0.00,,,0.00,,2013-04-22 18:16:00,
2013-04-22 20:21:00,55.8,49.3,30.06,East,90,2.2,3.1,79,0.00,,,0.00,,2013-04-22 18:21:00,
2013-04-22 20:26:00,55.8,49.3,30.06,East,90,2.2,2.2,79,0.00,,,0.00,,2013-04-22 18:26:00,
2013-04-22 20:31:00,55.6,48.7,30.06,East,90,3.5,3.5,78,0.00,,,0.00,,2013-04-22 18:31:00,
2013-04-22 20:36:00,55.4,48.9,30.06,East,90,4.0,6.2,79,0.00,,,0.00,,2013-04-22 18:36:00,
2013-04-22 20:41:00,55.6,49.1,30.06,East,90,1.3,4.0,79,0.00,,,0.00,,2013-04-22 18:41:00,
2013-04-22 20:46:00,55.4,48.9,30.03,East,90,1.3,1.3,79,0.00,,,0.00,,2013-04-22 18:46:00,
2013-04-22 20:51:00,55.4,48.9,30.03,East,90,1.3,1.3,79,0.00,,,0.00,,2013-04-22 18:51:00,
2013-04-22 20:56:00,55.2,49.1,30.06,SE,135,0.8,4.9,80,0.00,,,0.00,,2013-04-22 18:56:00,
2013-04-22 21:01:00,55.2,49.1,30.06,North,0,0.4,0.0,80,0.00,,,0.00,,2013-04-22 19:01:00,
2013-04-22 21:06:00,55.0,48.9,30.09,NNW,337,0.8,2.2,80,0.00,,,0.00,,2013-04-22 19:06:00,
2013-04-22 21:11:00,54.9,48.7,30.09,North,0,0.4,2.6,80,0.00,,,0.00,,2013-04-22 19:11:00,
2013-04-22 21:16:00,54.7,48.9,30.09,SE,135,1.3,1.3,81,0.00,,,0.00,,2013-04-22 19:16:00,
2013-04-22 21:21:00,54.7,48.9,30.09,NE,45,1.7,4.9,81,0.00,,,0.00,,2013-04-22 19:21:00,
2013-04-22 21:26:00,54.5,48.7,30.06,NNE,22,1.7,2.6,81,0.00,,,0.00,,2013-04-22 19:26:00,
2013-04-22 21:31:00,54.5,49.1,30.06,NE,45,1.3,2.2,82,0.00,,,0.00,,2013-04-22 19:31:00,
2013-04-22 21:36:00,54.3,48.9,30.09,NE,45,1.7,4.0,82,0.00,,,0.00,,2013-04-22 19:36:00,
2013-04-22 21:41:00,54.1,48.7,30.09,NE,45,0.8,1.7,82,0.00,,,0.00,,2013-04-22 19:41:00,
2013-04-22 21:46:00,54.1,48.9,30.12,East,90,0.8,0.8,83,0.00,,,0.00,,2013-04-22 19:46:00,
2013-04-22 21:51:00,54.0,48.7,30.12,East,90,2.6,2.6,83,0.00,,,0.00,,2013-04-22 19:51:00,
2013-04-22 21:56:00,54.0,49.1,30.09,NE,45,3.5,3.5,84,0.00,,,0.00,,2013-04-22 19:56:00,
2013-04-22 22:01:00,54.0,49.1,30.09,NE,45,2.6,4.4,84,0.00,,,0.00,,2013-04-22 20:01:00,
2013-04-22 22:06:00,54.0,49.1,30.09,East,90,1.3,1.7,84,0.00,,,0.00,,2013-04-22 20:06:00,
2013-04-22 22:11:00,53.8,48.9,30.09,East,90,3.1,3.1,84,0.00,,,0.00,,2013-04-22 20:11:00,
2013-04-22 22:16:00,53.8,48.9,30.12,NE,45,1.7,1.7,84,0.00,,,0.00,,2013-04-22 20:16:00,
2013-04-22 22:21:00,53.8,49.3,30.12,East,90,3.1,4.9,85,0.00,,,0.00,,2013-04-22 20:21:00,
2013-04-22 22:26:00,53.8,49.3,30.12,SE,135,4.0,4.0,85,0.00,,,0.00,,2013-04-22 20:26:00,
2013-04-22 22:31:00,53.8,49.3,30.12,SE,135,4.0,4.0,85,0.00,,,0.00,,2013-04-22 20:31:00,
2013-04-22 22:36:00,53.8,48.9,30.12,East,90,3.5,4.0,84,0.00,,,0.00,,2013-04-22 20:36:00,
2013-04-22 22:41:00,53.8,48.9,30.12,East,90,4.4,0.0,84,0.00,,,0.00,,2013-04-22 20:41:00,
2013-04-22 22:46:00,53.8,48.9,30.12,NE,45,5.8,9.3,84,0.00,,,0.00,,2013-04-22 20:46:00,
2013-04-22 22:51:00,53.6,48.7,30.12,NE,45,3.5,4.9,84,0.00,,,0.00,,2013-04-22 20:51:00,
2013-04-22 22:56:00,53.6,48.7,30.12,NE,45,2.6,4.9,84,0.00,,,0.00,,2013-04-22 20:56:00,
2013-04-22 23:01:00,53.6,48.7,30.12,NE,45,1.7,4.9,84,0.00,,,0.00,,2013-04-22 21:01:00,
2013-04-22 23:06:00,53.6,48.7,30.12,East,90,1.3,2.2,84,0.00,,,0.00,,2013-04-22 21:06:00,
2013-04-22 23:11:00,53.6,48.7,30.12,NE,45,0.8,1.7,84,0.00,,,0.00,,2013-04-22 21:11:00,
2013-04-22 23:16:00,53.6,48.7,30.12,NE,45,0.4,1.7,84,0.00,,,0.00,,2013-04-22 21:16:00,
2013-04-22 23:21:00,53.4,48.6,30.12,NE,45,0.8,1.7,84,0.00,,,0.00,,2013-04-22 21:21:00,
2013-04-22 23:26:00,53.4,48.6,30.12,NE,45,0.0,1.3,84,0.00,,,0.00,,2013-04-22 21:26:00,
2013-04-22 23:31:00,53.4,48.6,30.12,NE,45,1.3,1.3,84,0.00,,,0.00,,2013-04-22 21:31:00,
2013-04-22 23:36:00,53.6,48.7,30.09,NE,45,0.0,1.3,84,0.00,,,0.00,,2013-04-22 21:36:00,
2013-04-22 23:41:00,53.6,48.7,30.09,NE,45,0.8,2.2,84,0.00,,,0.00,,2013-04-22 21:41:00,
2013-04-22 23:46:00,53.6,48.7,30.15,NE,45,1.3,0.0,84,0.00,,,0.00,,2013-04-22 21:46:00,
2013-04-22 23:51:00,53.6,48.7,30.15,NE,45,1.7,2.6,84,0.00,,,0.00,,2013-04-22 21:51:00,
2013-04-22 23:56:00,53.6,48.7,30.12,NE,45,1.3,1.3,84,0.00,,,0.00,,2013-04-22 21:56:00,